Regional Weather Roundup
Issued by NWS

Home | Current Version | Previous Version | Graphics & Text | Print | Product List | Glossary On
Versions: 1 2 3 4 5 6 7 8 9 10 11 12 13 14 15 16 17 18 19 20 21 22 23 24 25 26 27 28 29 30 31 32 33 34 35 36 37 38 39 40 41 42 43 44 45 46 47 48 49 50
966
ASUS43 KLOT 241903
RWRIL

ILLINOIS REGIONAL WEATHER ROUNDUP
NATIONAL WEATHER SERVICE CHICAGO/ROMEOVILLE IL
200 PM CDT SUN JUL 24 2016

NOTE: "FAIR" INDICATES FEW OR NO CLOUDS BELOW 12,000 FEET WITH NO
SIGNIFICANT WEATHER AND/OR OBSTRUCTIONS TO VISIBILITY.

* THESE STATIONS ARE NOT UNDER NWS QUALITY CONTROL. THEY ALSO MAY NOT
  REPORT WEATHER SUCH AS PRECIPITATION OR FOG.

ILZ001-002-007-009-015-016-024-242000-
NORTHWEST ILLINOIS

CITY           SKY/WX    TMP DP  RH WIND       PRES   REMARKS
MOLINE         MOSUNNY   92  77  61 W10       29.86S HX 105
STERLING*      MOSUNNY   90  80  72 W13G18    29.87S HX 107
SAVANNA*       PTSUNNY   91  80  71 SW7       29.86S HX 108
$$

ILZ003-004-008-010-011-017-018-242000-
NORTH CENTRAL ILLINOIS

CITY           SKY/WX    TMP DP  RH WIND       PRES   REMARKS
ROCKFORD       PTSUNNY   98  76  49 SW17      29.86F HX 112
FREEPORT*      MOSUNNY   89  79  70 SW12      29.89S HX 104
ROCHELLE*      MOSUNNY   90  81  74 SW15      29.88S HX 108
$$

ILZ005-006-012>014-019>023-242000-
NORTHEAST ILLINOIS

CITY           SKY/WX    TMP DP  RH WIND       PRES   REMARKS
CHICAGO-OHARE  PTSUNNY   91  77  63 S17G24    29.86F HX 104
CHICAGO-MIDWAY PTSUNNY   92  78  63 S18G24    29.87F HX 107
AURORA         MOSUNNY   92  81  70 S16       29.87F HX 112
LANSING*       CLOUDY    89  77  68 S14       29.90F HX 101
WAUKEGAN       CLOUDY    94  78  60 S20       29.84F HX 110
DUPAGE AIRPORT MOSUNNY   92  79  65 S16G24    29.86F HX 108
WHEELING       PTSUNNY   91  76  61 SW16G23   29.86F HX 103
MORRIS*        MOSUNNY   90  80  73 S15       29.87F HX 106
NORTHERLY ISL    N/A     89  74  60 S15         N/A  HX  98
$$

LMZ740>746-242000-
SOUTHERN LAKE MICHIGAN

STATION/POSITION SKY/WX   TEMP    WIND        PRES    VSBY  WAVE
                          AIR SEA DIR/SP/G                  HT/PER
                          (F)     (DEG/KT/KT) (MB)    (MI)  (FT/S)
SOUTHERN BUOY              74 72  150/ 19/ 23 1010.8          3/ 5
WILMETTE HARBOR            75 63  210/  8/ 12   N/A           2/ 2
HARRISON CRIB              86     190/ 16/ 18   N/A
BURNHAM HARBOR             90     200/ 15/ 20   N/A
CALUMET HARBOR             88     180/ 10/ 15 1011.9F
BURNS HARBOR               87     190/ 16/ 18 1013.5S
MICHIGAN CITY              86     170/ 13/ 16   N/A
MICHIGAN CITY 6N           82 74  190/ 10/ 14   N/A           1/ 3
ST. JOSEPH                 78 74  120/  8/ 12 1013.0F         2/ 3
$$

ILZ025>027-034>036-040-047-049-050-058-095>099-242000-
WEST-CENTRAL ILLINOIS

CITY           SKY/WX    TMP DP  RH WIND       PRES   REMARKS
QUINCY         CLOUDY    95  78  58 SW9       29.90F HX 111
GALESBURG*     SUNNY     92  77  62 SW10      29.89S HX 106
MACOMB*        CLOUDY    91  80  68 SW12      29.90F HX 108
JACKSONVILLE*  SUNNY     92  81  70 S9        29.91F HX 111
PITTSFIELD*    SUNNY     93  81  67 S9        29.92F HX 113
$$

ILZ028>032-037-038-041>044-048-051>054-059>061-242000-
CENTRAL ILLINOIS

CITY           SKY/WX    TMP DP  RH WIND       PRES   REMARKS
PONTIAC        CLOUDY    90  82  78 S12       29.91F HX 110
BLOOMINGTON    MOSUNNY   89  80  74 S16       29.94F HX 106
DECATUR        MOSUNNY   92  77  61 S13       29.95S HX 105
PEORIA         CLOUDY    92  82  72 S13       29.88F HX 114
LACON*         PTSUNNY   91  79  66 SW10G16   29.87S HX 107
LINCOLN*       CLOUDY    90  82  76 S10G17    29.92F HX 110
SPRINGFIELD    MOSUNNY   92  81  70 S12       29.92F HX 112
TAYLORVILLE    MOSUNNY   91  81  72 NW8       29.95S HX 109
$$

ILZ033-039-045-046-055>057-062-063-242000-
EAST-CENTRAL ILLINOIS

CITY           SKY/WX    TMP DP  RH WIND       PRES   REMARKS
CHAMPAIGN      SUNNY     88  77  69 S10       29.96F HX 100
MATTOON        SUNNY     89  76  65 S10       29.96F HX 100
PARIS*         MOSUNNY   90  81  74 S3        29.97F HX 108
$$

ILZ079-100>102-242000-
SOUTHWEST ILLINOIS

CITY           SKY/WX    TMP DP  RH WIND       PRES   REMARKS
ALTON          MOSUNNY   91  79  66 S8        29.94F HX 107
BELLEVILLE     SUNNY     93  82  68 S7        29.93F HX 115
CAHOKIA*       SUNNY     96  76  52 S7        29.93F HX 109
SPARTA*        PTSUNNY   91  78  64 S6        29.97F HX 106
$$

ILZ064>066-069>071-074>076-080>082-084>086-088>090-092>094-242000-
SOUTH-CENTRAL ILLINOIS

CITY           SKY/WX    TMP DP  RH WIND       PRES   REMARKS
CARBONDALE     SUNNY     92  75  57 SW6       29.97F HX 103
EFFINGHAM*     SUNNY     92  78  64 S8        29.98S HX 106
MARION         PTSUNNY   93  77  59 S12       29.98F HX 107
MT. VERNON     SUNNY     95  75  52 SW10      29.97F HX 107
CENTRALIA*     MOSUNNY   93  78  63 S9        29.96S HX 108
SALEM*         MOSUNNY   92  76  59 S9        29.96F HX 104
METROPOLIS*    MOSUNNY   91  77  63 S6        29.99S HX 103
$$

ILZ067-068-072-073-078-083-087-091-242000-
SOUTHEAST ILLINOIS

CITY           SKY/WX    TMP DP  RH WIND       PRES   REMARKS
LAWRENCEVILLE  MOSUNNY   90  79  70 S12       29.98F HX 106
FLORA*         MOSUNNY   91  79  67 S8        29.97S HX 107
FAIRFIELD*     PTSUNNY   90  79  69 SE6       29.96F HX 106
HARRISBURG*    MOSUNNY   90  78  67 SW8       29.98F HX 105
ROBINSON*      MOSUNNY   91  77  64 S10       29.98S HX 104
CARMI*         MOSUNNY   88  79  73 S6        29.97F HX 103
$$

ABBREVIATIONS USED IN REMARKS
   TC - TEMPERATURE IN CELSIUS
  WCI - WIND CHILL INDEX
   HX - HEAT INDEX
  VSB - VISIBILITY
$$





USA.gov is the U.S. government's official web portal to all federal, state and local government web resources and services.